Dallas Addison, TX

9:34 AM CDT on September 18, 2019 (GMT -0500)
Addison

Weather History for KADS - August, 2019

Change the Weather History Date:

Thursday, August 22, 2019

  Actual Average Record
Temperature  
Mean Temperature 90 °F -  
Max Temperature 98 °F 92 °F 104 °F (2010)
Min Temperature 81 °F 75 °F 68 °F (2012)
Cooling Degree Days 24    
Growing Degree Days 40 (Base 50)    
Moisture  
Dew Point 67 °F    
Average Humidity 51    
Maximum Humidity 63    
Minimum Humidity 30    
Precipitation  
Precipitation 0.00 in - - ()
Sea Level Pressure  
Sea Level Pressure 29.93 in    
Wind  
Wind Speed 8 mph ()    
Max Wind Speed 15 mph    
Max Gust Speed 30 mph    
Visibility 10.0 miles    
Events      
Averages and records for this station are not official NWS values.
T = Trace of Precipitation, MM = Missing Value Source: Averaged Metar Reports

Daily Weather History Graph

Daily Weather History Graph

Search for Another Location

Airport or City:

Astronomy

Aug. 22, 2019 Rise Set
Actual Time 6:55 AM CDT 8:04 PM CDT
Civil Twilight 6:29 AM CDT 8:30 PM CDT
Nautical Twilight 5:58 AM CDT 9:00 PM CDT
Astronomical Twilight 5:27 AM CDT 9:32 PM CDT
Moon No Moon Rise 1:11 PM CDT (8/22)
Length of Visible Light 14h 01m
Length of Day
13h 09m
Waning Gibbous, 59% of the Moon is Illuminated
Aug 22
Waning Gibbous
Aug 23
Last Quarter
Aug 30
New
Sep 5
First Quarter
Sep 13
Full

Hourly Weather History & Observations

Time (CDT) Temp. Heat Index Dew Point Humidity Pressure Visibility Wind Dir Wind Speed Gust Speed Precip Events Conditions
12:15 AM 86.5 °F 90.3 °F 68.5 °F 55% 29.95 in 10.0 mi SSE 10.4 mph - N/A   Clear
12:35 AM 86.0 °F 89.7 °F 68.5 °F 56% 29.95 in 10.0 mi SSE 9.2 mph 16.1 mph N/A   Clear
12:55 AM 85.5 °F 89.1 °F 68.7 °F 57% 29.95 in 10.0 mi SSE 8.1 mph - N/A   Clear
1:15 AM 86.0 °F 89.4 °F 68.4 °F 55% 29.95 in 10.0 mi South 9.2 mph - N/A   Clear
1:35 AM 85.8 °F 89.1 °F 68.2 °F 55% 29.95 in 10.0 mi South 6.9 mph - N/A   Clear
1:55 AM 85.3 °F 88.5 °F 68.2 °F 56% 29.95 in 10.0 mi South 6.9 mph - N/A   Clear
2:15 AM 84.7 °F 87.9 °F 68.0 °F 57% 29.95 in 10.0 mi SSW 5.8 mph - N/A   Clear
2:35 AM 84.2 °F 87.3 °F 67.8 °F 58% 29.95 in 10.0 mi SSW 9.2 mph - N/A   Clear
2:55 AM 84.2 °F 87.3 °F 67.8 °F 58% 29.94 in 10.0 mi South 6.9 mph - N/A   Clear
3:15 AM 83.7 °F 86.5 °F 67.6 °F 58% 29.94 in 10.0 mi SSW 8.1 mph - N/A   Clear
3:35 AM 83.5 °F 86.2 °F 67.3 °F 58% 29.94 in 10.0 mi South 10.4 mph 16.1 mph N/A   Clear
3:55 AM 83.3 °F 85.9 °F 67.1 °F 58% 29.94 in 10.0 mi South 5.8 mph - N/A   Clear
4:15 AM 82.6 °F 85.1 °F 67.1 °F 59% 29.94 in 10.0 mi South 6.9 mph - N/A   Clear
4:35 AM 82.6 °F 85.3 °F 67.3 °F 60% 29.94 in 10.0 mi SSW 8.1 mph - N/A   Clear
4:55 AM 82.4 °F 85.0 °F 67.3 °F 60% 29.94 in 10.0 mi SSW 6.9 mph - N/A   Clear
5:15 AM 82.2 °F 84.9 °F 67.6 °F 61% 29.94 in 10.0 mi SSW 5.8 mph - N/A   Clear
5:35 AM 81.9 °F 84.8 °F 68.0 °F 63% 29.94 in 10.0 mi SSW 5.8 mph - N/A   Clear
5:47 AM 82.4 °F 85.4 °F 68.0 °F 62% 29.94 in 10.0 mi South 8.1 mph - N/A   Clear
6:47 AM 82.4 °F 85.4 °F 68.0 °F 62% 29.95 in 10.0 mi South 9.2 mph - N/A   Clear
7:47 AM 82.4 °F 85.4 °F 68.0 °F 62% 29.98 in 10.0 mi South 11.5 mph - N/A   Clear
8:50 AM 84.2 °F 88.4 °F 69.8 °F 62% 29.99 in 10.0 mi South 9.2 mph - N/A   Clear
9:47 AM 86.0 °F 89.4 °F 68.0 °F 55% 29.98 in 10.0 mi South 10.4 mph 29.9 mph N/A   Clear
10:47 AM 89.6 °F 93.4 °F 68.0 °F 49% 29.98 in 10.0 mi SSW 9.2 mph - N/A   Clear
11:47 AM 91.4 °F 93.2 °F 64.4 °F 41% 29.97 in 10.0 mi South 12.7 mph 19.6 mph N/A   Clear
12:47 PM 93.2 °F 94.9 °F 64.4 °F 38% 29.94 in 10.0 mi South 6.9 mph 12.7 mph N/A   Clear
1:47 PM 96.8 °F 100.7 °F 66.2 °F 37% 29.92 in 10.0 mi SW 5.8 mph 12.7 mph N/A   Clear
2:47 PM 96.8 °F 98.0 °F 62.6 °F 32% 29.91 in 10.0 mi SSE 12.7 mph - N/A   Mostly Cloudy
4:47 PM 98.6 °F 100.0 °F 62.6 °F 30% 29.85 in 10.0 mi South 11.5 mph 17.3 mph N/A   Scattered Clouds
5:47 PM 96.8 °F 98.0 °F 62.6 °F 32% 29.85 in 10.0 mi ESE 12.7 mph 17.3 mph N/A   Scattered Clouds
6:47 PM 96.8 °F 98.0 °F 62.6 °F 32% 29.83 in 10.0 mi SE 9.2 mph 21.9 mph N/A   Scattered Clouds
7:47 PM 93.2 °F 94.9 °F 64.4 °F 38% 29.85 in 10.0 mi SSE 13.8 mph 19.6 mph N/A   Clear
8:47 PM 91.4 °F 93.2 °F 64.4 °F 41% 29.86 in 10.0 mi SE 15.0 mph - N/A   Clear
9:47 PM 91.4 °F 93.2 °F 64.4 °F 41% 29.88 in 10.0 mi SE 15.0 mph 20.7 mph N/A   Clear
10:15 PM 89.6 °F 92.6 °F 66.7 °F 47% 29.90 in 10.0 mi SE 11.5 mph 17.3 mph N/A   Clear
10:35 PM 88.9 °F 91.4 °F 66.6 °F 47% 29.91 in 10.0 mi SSE 10.4 mph 17.3 mph N/A   Clear
10:55 PM 88.7 °F 91.1 °F 66.4 °F 47% 29.91 in 10.0 mi SSE 12.7 mph 17.3 mph N/A   Clear
11:15 PM 88.0 °F 90.3 °F 66.2 °F 48% 29.92 in 10.0 mi SSE 12.7 mph - N/A   Clear
11:35 PM 87.8 °F 90.4 °F 66.2 °F 49% 29.91 in 10.0 mi SSE 10.4 mph - N/A   Clear
11:55 PM 87.8 °F 90.0 °F 66.0 °F 48% 29.91 in 10.0 mi SSE 8.1 mph - N/A   Clear